{"data":{"norad_id":46698,"epoch":"2026-05-25T03:18:52.333344Z","epoch_age_seconds":63020,"freshness":"FRESH","line1":"1 46698U 20073AE  26145.13810571  .00061603  00000+0  58173-3 0  9991","line2":"2 46698  53.0403 195.8421 0007242 356.2910   3.8050 15.66428118309539","mean_motion":15.66428118,"eccentricity":0.0007242,"inclination_deg":53.0403,"raan_deg":195.8421,"arg_perigee_deg":356.291,"mean_anomaly_deg":3.805,"bstar":0.00058173,"rev_number":30953,"period_min":91.928891179416,"perigee_km":364.24825958556,"apogee_km":374.02100781982,"semimajor_km":6747.2716337027,"source":"CELESTRAK","updated_at":"2026-05-25T13:38:16.515870Z"}}